TimeEDT,TemperatureF,Dew PointF,Humidity,Sea Level PressureIn,VisibilityMPH,Wind Direction,Wind SpeedMPH,Gust SpeedMPH,PrecipitationIn,Events,Conditions,WindDirDegrees,DateUTC
12:15 AM,62.6,62.6,100,30.15,3.0,NNE,11.5,-,N/A,,Overcast,20,2013-04-22 04:15:00
12:55 AM,62.6,62.6,100,30.14,4.0,North,12.7,18.4,N/A,,Overcast,10,2013-04-22 04:55:00
1:35 AM,62.6,62.6,100,30.13,4.0,NNE,10.4,16.1,N/A,,Overcast,20,2013-04-22 05:35:00
1:55 AM,62.6,62.6,100,30.12,1.2,NNE,10.4,-,N/A,,Overcast,30,2013-04-22 05:55:00
2:15 AM,62.6,62.6,100,30.11,1.8,NNE,12.7,17.3,N/A,,Overcast,20,2013-04-22 06:15:00
2:35 AM,62.6,62.6,100,30.10,1.5,NNE,9.2,17.3,N/A,,Overcast,30,2013-04-22 06:35:00
2:55 AM,62.6,62.6,100,30.10,1.8,NNE,9.2,-,N/A,Rain,Light Rain,20,2013-04-22 06:55:00
3:15 AM,62.6,62.6,100,30.09,3.0,North,8.1,-,N/A,,Overcast,10,2013-04-22 07:15:00
3:35 AM,62.6,62.6,100,30.09,3.0,NNE,11.5,-,N/A,,Overcast,20,2013-04-22 07:35:00
3:55 AM,62.6,62.6,100,30.09,3.0,NNE,11.5,-,N/A,,Overcast,20,2013-04-22 07:55:00
4:15 AM,62.6,62.6,100,30.08,2.5,NNE,12.7,16.1,N/A,,Overcast,20,2013-04-22 08:15:00
4:35 AM,62.6,62.6,100,30.08,1.5,North,10.4,-,N/A,Rain,Light Rain,10,2013-04-22 08:35:00
4:55 AM,62.6,62.6,100,30.08,2.0,North,10.4,-,N/A,,Overcast,10,2013-04-22 08:55:00
5:15 AM,62.6,62.6,100,30.09,2.0,North,11.5,-,N/A,,Overcast,360,2013-04-22 09:15:00
5:35 AM,62.6,62.6,100,30.09,1.8,North,10.4,-,N/A,Rain,Light Rain,360,2013-04-22 09:35:00
5:55 AM,62.6,62.6,100,30.09,3.0,North,11.5,16.1,N/A,,Overcast,360,2013-04-22 09:55:00
6:15 AM,62.6,62.6,100,30.10,1.5,North,11.5,-,N/A,Rain,Light Rain,360,2013-04-22 10:15:00
6:35 AM,60.8,60.8,100,30.10,2.0,North,11.5,-,N/A,Rain,Light Rain,360,2013-04-22 10:35:00
6:50 AM,60.8,60.8,100,30.11,2.0,North,13.8,26.5,N/A,Rain,Light Rain,360,2013-04-22 10:50:00
7:50 AM,60.8,59.0,94,30.11,3.0,North,6.9,-,N/A,,Overcast,360,2013-04-22 11:50:00
8:50 AM,60.8,60.8,100,30.12,4.0,NNE,9.2,17.3,N/A,Rain,Light Rain,30,2013-04-22 12:50:00
9:50 AM,60.8,60.8,100,30.14,5.0,North,13.8,23.0,N/A,Rain,Light Rain,10,2013-04-22 13:50:00
10:50 AM,59.0,59.0,100,30.16,5.0,NNE,13.8,23.0,N/A,,Overcast,30,2013-04-22 14:50:00
11:50 AM,59.0,59.0,100,30.17,5.0,NNE,16.1,-,N/A,,Overcast,30,2013-04-22 15:50:00
12:50 PM,59.0,57.2,94,30.17,5.0,NNE,15.0,27.6,N/A,,Overcast,30,2013-04-22 16:50:00
1:50 PM,59.0,57.2,94,30.16,5.0,NNE,16.1,26.5,N/A,,Overcast,30,2013-04-22 17:50:00
2:50 PM,59.0,55.4,88,30.15,6.0,NNE,11.5,26.5,N/A,,Overcast,30,2013-04-22 18:50:00
3:50 PM,62.6,55.4,77,30.13,7.0,NNE,15.0,26.5,N/A,,Overcast,30,2013-04-22 19:50:00
4:50 PM,62.6,55.4,77,30.12,7.0,NNE,15.0,23.0,N/A,,Overcast,30,2013-04-22 20:50:00
5:50 PM,62.6,55.4,77,30.12,7.0,NNE,13.8,24.2,N/A,,Overcast,30,2013-04-22 21:50:00
6:50 PM,62.6,55.4,77,30.12,7.0,NNE,11.5,-,N/A,,Mostly Cloudy,30,2013-04-22 22:50:00
7:50 PM,60.8,53.6,77,30.12,7.0,NNE,11.5,-,N/A,,Scattered Clouds,30,2013-04-22 23:50:00
8:15 PM,57.2,53.6,88,30.13,10.0,Calm,Calm,-,N/A,,Clear,0,2013-04-23 00:15:00
8:35 PM,55.4,53.6,94,30.13,10.0,Calm,Calm,-,N/A,,Clear,0,2013-04-23 00:35:00
8:55 PM,55.4,53.6,94,30.13,10.0,Calm,Calm,-,N/A,,Clear,0,2013-04-23 00:55:00
9:15 PM,53.6,53.6,100,30.13,9.0,Calm,Calm,-,N/A,,Clear,0,2013-04-23 01:15:00
9:35 PM,53.6,53.6,100,30.13,8.0,Calm,Calm,-,N/A,,Clear,0,2013-04-23 01:35:00
9:55 PM,53.6,53.6,100,30.14,10.0,Calm,Calm,-,N/A,,Clear,0,2013-04-23 01:55:00
10:15 PM,53.6,53.6,100,30.15,10.0,Calm,Calm,-,N/A,,Clear,0,2013-04-23 02:15:00
10:35 PM,53.6,53.6,100,30.15,9.0,Calm,Calm,-,N/A,,Clear,0,2013-04-23 02:35:00
10:55 PM,53.6,53.6,100,30.15,10.0,NNE,4.6,-,N/A,,Clear,30,2013-04-23 02:55:00
11:15 PM,55.4,53.6,94,30.15,10.0,Calm,Calm,-,N/A,,Clear,0,2013-04-23 03:15:00
11:35 PM,53.6,53.6,100,30.15,10.0,Calm,Calm,-,N/A,,Clear,0,2013-04-23 03:35:00
11:55 PM,53.6,51.8,94,30.15,10.0,Calm,Calm,-,N/A,,Clear,0,2013-04-23 03:55:00